HORIZONS 3E (43633 NORAD) Tracking and Keplerian Element Data

This shows tracking and keplerian element data for the satellite.

Feedback or suggestion? Click here.




ElementValue
Catalog43633
NameHORIZONS 3E
Epoch Orbit215
Epoch Day112.57182334
Epoch Year2019
RAAN355.037
Inclination0.0056
Eccentricity9E-06
Argument of Perigee99.8804
Mean Anonmoly130.2607
Mean Motion1.00271767
Decay Rate-4.7E-07
L11 43633U 18074B 19112.57182334 -.00000047 00000-0 00000+0 0 9997
L22 43633 0.0056 355.0370 0000090 99.8804 130.2607 1.00271767 2150

Live tracking and technical data element details for HORIZONS 3E (NORAD 43633). HORIZONS 3E can be tracked NOW for your location showing map with azimuth and elevation plus other details from your city location.

Track the satellite on the map from your city or location and see movement details for azimuth, elevation, latitude, longitude, range, height, and movement on the map or in text.







IsCatalogInMostPopularTable: catalog: 43633, numindb: 114
Update: records affected: 1



GetName: 43633 HORIZONS 3E

Hit Count: updated at: Tue, 23 Apr 2019 19:49:45 GMT